Home > Weather > Thompson > Past weeks

Flag for Canada Weather for the Past 2 Weeks in Thompson, Manitoba, Canada

Now
0 °F

Light snow. Overcast.


Feels Like: -10 °F
Forecast: -18 / -4 °F
Wind: 5 mph from Northwest

Location: Thompson

Current Time: Feb 8, 2016 at 3:07:51 AM

Latest Report: Feb 8, 2016 at 2:00 AM


Visibility: 8 mi

Pressure: 30.26 "Hg

Humidity: 84%

Dew point: -4 °F

Location of ThompsonLocation

Historic Weather in Thompson — Graph

°F

Thompson Temperature Yesterday

Maximum temperature yesterday: 0 °F (at 8:00 PM)
Minimum temperature yesterday: -9 °F (at 4:00 AM)
Average temperature yesterday: -6 °F

High & Low Weather Summary for the Past Weeks

 TemperatureHumidityPressure
High21 °F (Jan 29, 4:00 PM)93% (Jan 25, 10:00 AM)30.27 "Hg (Jan 25, 10:00 AM)
Low-29 °F (Feb 5, 9:00 AM)53% (Feb 5, 3:00 PM)29.04 "Hg (Jan 29, 9:00 PM)
Average-2 °F77%29.91 "Hg
* Reported Jan 24 2:00 AM — Feb 8 2:00 AM, Thompson, Weather by CustomWeather, © 2016

Note: Actual official high and low records may vary slightly from our data, if they occured in-between our weather recording intervals... More about our weather records

Advertising

Thompson Weather History for the Previous 24 Hours

 ConditionsComfort  
Time TempWeatherWind HumidityBarometerVisibility
2:00 AM
Mon, Feb 8
0 °FLight snow. Overcast.5 mph84%30.26 "Hg8 mi
1:00 AM0 °FLight snow. Overcast.5 mph78%30.24 "Hg8 mi
12:00 AM-2 °FLight snow. Overcast.6 mph77%30.23 "Hg8 mi
11:00 PM
Sun, Feb 7
-2 °FLight snow. Overcast.7 mph77%30.23 "Hg8 mi
10:00 PM-2 °FLight snow. Overcast.9 mph77%30.22 "Hg6 mi
9:00 PM-2 °FLight snow. Mostly cloudy.8 mph77%30.21 "Hg4 mi
8:00 PM0 °FLight snow. Mostly cloudy.8 mph78%30.19 "Hg4 mi
7:00 PM-2 °FLight snow. Mostly cloudy.3 mph77%30.17 "Hg6 mi
6:00 PM-2 °FLight snow. Mostly cloudy.3 mph77%30.16 "Hg2 mi
5:00 PM-2 °FLight snow. Mostly cloudy.3 mph77%30.14 "Hg3 mi
4:00 PM-4 °FLight snow. Mostly cloudy.8 mph77%30.11 "Hg1 mi
3:00 PM-4 °FLight snow. Mostly cloudy.5 mph77%30.08 "Hg2 mi
2:00 PM-4 °FLight snow. Mostly cloudy.7 mph71%30.07 "Hg2 mi
1:54 PM-4 °FLight snow. Mostly cloudy.9 mph65%30.06 "Hg2 mi
1:00 PM-6 °FLight snow. Mostly cloudy.8 mph70%30.04 "Hg1 mi
12:00 PM-6 °FLight snow. Ice fog.7 mph70%30.03 "Hg1 mi
11:00 AM-8 °FLight snow. Overcast.7 mph77%30.03 "Hg3 mi
10:00 AM-8 °FLight snow. Mostly cloudy.9 mph70%30.01 "Hg2 mi
9:00 AM-9 °FLight snow. Overcast.8 mph77%29.98 "Hg5 mi
8:00 AM-9 °FLight snow. Ice fog.7 mph77%29.97 "Hg1 mi
7:00 AM-9 °FLight snow. Overcast.7 mph70%29.94 "Hg2 mi
6:00 AM-9 °FLight snow. Low clouds.8 mph70%29.92 "Hg2 mi
5:00 AM-9 °FLight snow. Low clouds.7 mph77%29.90 "Hg1 mi
4:53 AM-9 °FLight snow. Low clouds.8 mph77%29.90 "Hg1 mi
4:00 AM-9 °FLight snow. Mostly cloudy.7 mph77%29.87 "Hg3 mi
3:00 AM-8 °FLight snow. Mostly cloudy.10 mph70%29.85 "Hg3 mi
Weather by CustomWeather, © 2016

See weather overviewHow to use our weather pages